Location: Newark
(17.9939°S, 31.0481°E)
Time: 00:13:57
(UTC+00:00)

Courier 1B - Pass Details

Date: 12 November 2019
Orbit: 963 x 1209 km, 28.3° (Epoch: 08 December)

Event Time Altitude Azimuth Distance (km) Brightness Sun altitude
Rises 16:25:41 0° 299° (WNW) 3,971 11.3 -4.9°
Reaches altitude 10° 16:28:25 10° 300° (WNW) 3,044 10.7 -5.5°
Maximum altitude 16:36:03 79° 26° (NNE) 1,212 7.9 -7.2°
Drops below altitude 10° 16:43:57 10° 111° (ESE) 3,152 9.7 -8.9°
Sets 16:46:49 0° 112° (ESE) 4,118 10.3 -9.6°
